,,,PA_Meas_PMT16A,,PR_Meas_QMR101_102,,RH_Meas_QMH101,,SR_Meas_QMS101,,TA_Meas_QMH101,,GenWind,,GenWind,
date,time,status,PA,status,PR,status,RH,status,SR,status,TA,status,DirAvg,status,SpdAvg,
2009-08-01, 00:00:05,VALID,999.154,VALID,0,VALID,53.4607,VALID,0,VALID,26.8247,VALID,172,VALID,4.6293,
2009-08-01, 00:01:05,VALID,999.153,VALID,0,VALID,53.7507,VALID,0,VALID,26.8443,VALID,177,VALID,7.08633,
2009-08-01, 00:02:05,VALID,999.152,VALID,0,VALID,53.7049,VALID,0,VALID,26.7836,VALID,176,VALID,6.43672,
2009-08-01, 00:03:05,VALID,999.041,VALID,0,VALID,53.4302,VALID,0,VALID,26.8813,VALID,184,VALID,6.36445,
2009-08-01, 00:04:05,VALID,999.111,VALID,0,VALID,53.8422,VALID,0,VALID,26.8638,VALID,172,VALID,7.86602,
2009-08-01, 00:05:05,VALID,999.101,VALID,0,VALID,53.8727,VALID,0,VALID,26.8032,VALID,168,VALID,5.35195,
2009-08-01, 00:06:05,VALID,999.108,VALID,0,VALID,54.0711,VALID,0,VALID,26.8052,VALID,159,VALID,5.29805,
2009-08-01, 00:07:05,VALID,999.134,VALID,0,VALID,54.2847,VALID,0,VALID,26.7836,VALID,172,VALID,6.77266,
2009-08-01, 00:08:05,VALID,999.091,VALID,0,VALID,54.3305,VALID,0,VALID,26.8052,VALID,177,VALID,5.57656,
2009-08-01, 00:09:05,VALID,999.01,VALID,0,VALID,54.3305,VALID,0,VALID,26.7641,VALID,158,VALID,8.42813,
2009-08-01, 00:10:05,VALID,998.929,VALID,0,VALID,54.3534,VALID,0,VALID,26.8247,VALID,186,VALID,6.85391,
2009-08-01, 00:11:05,VALID,998.937,VALID,0,VALID,54.5518,VALID,0,VALID,26.8227,VALID,177,VALID,6.51523,
2009-08-01, 00:12:05,VALID,998.902,VALID,0,VALID,54.5136,VALID,0,VALID,26.7446,VALID,167,VALID,8.47578,
2009-08-01, 00:13:05,VALID,998.905,VALID,0,VALID,54.651,VALID,0,VALID,26.7836,VALID,164,VALID,7.84062,
2009-08-01, 00:14:05,VALID,998.896,VALID,0,VALID,54.918,VALID,0,VALID,26.7641,VALID,168,VALID,6.4418,
2009-08-01, 00:15:05,VALID,998.868,VALID,0,VALID,54.5899,VALID,0,VALID,26.7446,VALID,180,VALID,7.37383,
2009-08-01, 00:16:05,VALID,998.867,VALID,0,VALID,55.0325,VALID,0,VALID,26.8052,VALID,173,VALID,5.61445,
2009-08-01, 00:17:05,VALID,998.807,VALID,0,VALID,55.063,VALID,0.112286,VALID,26.7446,VALID,171,VALID,6.96602,
2009-08-01, 00:18:05,VALID,998.858,VALID,0,VALID,55.597,VALID,0,VALID,26.7055,VALID,174,VALID,5.31641,
2009-08-01, 00:19:05,VALID,998.865,VALID,0,VALID,55.3987,VALID,0,VALID,26.6665,VALID,175,VALID,5.17656,
2009-08-01, 00:20:05,VALID,998.817,VALID,0,VALID,55.2613,VALID,0,VALID,26.7055,VALID,162,VALID,6.45742,
2009-08-01, 00:21:05,VALID,998.799,VALID,0,VALID,54.5899,VALID,0,VALID,26.7661,VALID,179,VALID,8.88359,
2009-08-01, 00:22:05,VALID,998.873,VALID,0,VALID,55.063,VALID,0,VALID,26.8032,VALID,166,VALID,6.12773,
2009-08-01, 00:23:05,VALID,998.792,VALID,0,VALID,54.8036,VALID,0,VALID,26.8032,VALID,171,VALID,6.94805,
2009-08-01, 00:24:05,VALID,998.761,VALID,0,VALID,54.361,VALID,0,VALID,26.8638,VALID,175,VALID,8.38281,
2009-08-01, 00:25:05,VALID,998.782,VALID,0,VALID,54.6739,VALID,0,VALID,26.8833,VALID,168,VALID,6.59453,
2009-08-01, 00:26:05,VALID,998.842,VALID,0,VALID,54.9333,VALID,0,VALID,26.8032,VALID,173,VALID,6.24062,
2009-08-01, 00:27:05,VALID,998.796,VALID,0,VALID,54.361,VALID,0,VALID,26.8422,VALID,176,VALID,7.46953,
2009-08-01, 00:28:05,VALID,998.832,VALID,0,VALID,54.5136,VALID,0,VALID,26.8833,VALID,168,VALID,5.52461,
2009-08-01, 00:29:05,VALID,998.773,VALID,0,VALID,54.2085,VALID,0,VALID,26.8422,VALID,176,VALID,9.30508,
2009-08-01, 00:30:05,VALID,998.775,VALID,0,VALID,54.4602,VALID,0,VALID,26.9008,VALID,175,VALID,6.86836,
2009-08-01, 00:31:05,VALID,998.774,VALID,0,VALID,54.7425,VALID,0,VALID,26.8638,VALID,166,VALID,8.41445,
2009-08-01, 00:32:05,VALID,998.822,VALID,0,VALID,54.8188,VALID,0,VALID,26.9029,VALID,170,VALID,5.91758,
2009-08-01, 00:33:05,VALID,998.773,VALID,0,VALID,55.0859,VALID,0,VALID,26.8833,VALID,169,VALID,5.28359,
2009-08-01, 00:34:05,VALID,998.7,VALID,0,VALID,54.9027,VALID,0,VALID,26.8032,VALID,174,VALID,6.78398,
2009-08-01, 00:35:05,VALID,998.654,VALID,0,VALID,54.9027,VALID,0,VALID,26.8618,VALID,170,VALID,7.30781,
2009-08-01, 00:36:05,VALID,998.733,VALID,0,VALID,54.979,VALID,0,VALID,26.8443,VALID,181,VALID,5.40078,
2009-08-01, 00:37:05,VALID,998.673,VALID,0,VALID,54.9638,VALID,0,VALID,26.8833,VALID,180,VALID,6.48242,
2009-08-01, 00:38:05,VALID,998.677,VALID,0,VALID,54.5213,VALID,0,VALID,26.8813,VALID,175,VALID,6.56641,
2009-08-01, 00:39:05,VALID,998.701,VALID,0,VALID,54.6128,VALID,0,VALID,26.9008,VALID,179,VALID,6.57773,
2009-08-01, 00:40:05,VALID,998.706,VALID,0,VALID,54.8341,VALID,0,VALID,26.8813,VALID,169,VALID,4.97773,
2009-08-01, 00:41:05,VALID,998.638,VALID,0,VALID,54.7883,VALID,0,VALID,26.8813,VALID,182,VALID,8.19023,
2009-08-01, 00:42:05,VALID,998.674,VALID,0,VALID,54.9409,VALID,0,VALID,26.8813,VALID,169,VALID,6.675,
2009-08-01, 00:43:05,VALID,998.632,VALID,0,VALID,54.4221,VALID,0,VALID,26.9615,VALID,162,VALID,6.1207,
2009-08-01, 00:44:05,VALID,998.657,VALID,0,VALID,54.6433,VALID,0,VALID,26.8813,VALID,174,VALID,6.06367,
2009-08-01, 00:45:05,VALID,998.609,VALID,0,VALID,54.8417,VALID,0,VALID,26.8813,VALID,173,VALID,6.12187,
2009-08-01, 00:46:05,VALID,998.655,VALID,0,VALID,55.1698,VALID,0,VALID,26.9029,VALID,169,VALID,4.77461,
2009-08-01, 00:47:05,VALID,998.65,VALID,0,VALID,55.1622,VALID,0,VALID,26.8443,VALID,169,VALID,4.48125,
2009-08-01, 00:48:05,VALID,998.554,VALID,0,VALID,54.9409,VALID,0,VALID,26.8247,VALID,179,VALID,6.39727,
2009-08-01, 00:49:05,VALID,998.609,VALID,0,VALID,54.6128,VALID,0,VALID,26.9008,VALID,172,VALID,8.0457,
2009-08-01, 00:50:05,VALID,998.604,VALID,0,VALID,54.7502,VALID,0,VALID,26.9419,VALID,159,VALID,5.18359,
2009-08-01, 00:51:05,VALID,998.615,VALID,0,VALID,54.9256,VALID,0,VALID,26.9008,VALID,171,VALID,7.91523,
2009-08-01, 00:52:05,VALID,998.65,VALID,0,VALID,54.3,VALID,0,VALID,27.0591,VALID,178,VALID,6.74414,
2009-08-01, 00:53:05,VALID,998.673,VALID,0,VALID,54.2008,VALID,0,VALID,27.1157,VALID,180,VALID,5.76289,
2009-08-01, 00:54:05,VALID,998.604,VALID,0,VALID,54.3534,VALID,0,VALID,27.1157,VALID,173,VALID,7.14297,
2009-08-01, 00:55:05,VALID,998.595,VALID,0,VALID,54.3916,VALID,0,VALID,27.0766,VALID,176,VALID,8.89805,
2009-08-01, 00:56:05,VALID,998.599,VALID,0,VALID,54.4907,VALID,0,VALID,27.0961,VALID,169,VALID,6.67266,
2009-08-01, 00:57:05,VALID,998.622,VALID,0,VALID,54.6357,VALID,0,VALID,27.0982,VALID,175,VALID,6.0125,
2009-08-01, 00:58:05,VALID,998.588,VALID,0,VALID,54.6739,VALID,0,VALID,27.0766,VALID,175,VALID,6.42578,
2009-08-01, 00:59:05,VALID,998.583,VALID,0,VALID,54.9943,VALID,0,VALID,27.018,VALID,184,VALID,4.23125,
2009-08-01, 01:00:05,VALID,998.594,VALID,0,VALID,55.1316,VALID,0,VALID,26.9789,VALID,172,VALID,8.17188,
2009-08-01, 01:01:05,VALID,998.579,VALID,0,VALID,54.4907,VALID,0,VALID,27.0787,VALID,188,VALID,6.71758,
2009-08-01, 01:02:05,VALID,998.581,VALID,0,VALID,54.712,VALID,0,VALID,27.1157,VALID,181,VALID,5.91484,
2009-08-01, 01:03:05,VALID,998.492,VALID,0,VALID,54.8875,VALID,0,VALID,27.0571,VALID,173,VALID,7.72813,
2009-08-01, 01:04:05,VALID,998.428,VALID,0,VALID,54.918,VALID,0,VALID,27.1157,VALID,179,VALID,7.4207,
2009-08-01, 01:05:05,VALID,998.516,VALID,0,VALID,55.1011,VALID,0,VALID,27.0766,VALID,180,VALID,7.26211,
2009-08-01, 01:06:05,VALID,998.441,VALID,0,VALID,55.2766,VALID,0,VALID,27.0982,VALID,173,VALID,6.33359,
2009-08-01, 01:07:05,VALID,998.457,VALID,0,VALID,55.4063,VALID,0,VALID,27.0591,VALID,183,VALID,5.08789,
2009-08-01, 01:08:05,VALID,998.458,VALID,0,VALID,55.3529,VALID,0,VALID,27.0787,VALID,187,VALID,4.85898,
2009-08-01, 01:09:05,VALID,998.453,VALID,0,VALID,55.391,VALID,0,VALID,27.0571,VALID,182,VALID,5.58164,
2009-08-01, 01:10:05,VALID,998.412,VALID,0,VALID,55.4368,VALID,0,VALID,27.0375,VALID,182,VALID,6.0293,
2009-08-01, 01:11:05,VALID,998.474,VALID,0,VALID,55.6199,VALID,0,VALID,27.0591,VALID,179,VALID,8.03047,
2009-08-01, 01:12:05,VALID,998.429,VALID,0,VALID,55.3071,VALID,0,VALID,27.1373,VALID,172,VALID,7.73789,
2009-08-01, 01:13:05,VALID,998.44,VALID,0,VALID,55.3758,VALID,0,VALID,27.1547,VALID,187,VALID,6.03086,
2009-08-01, 01:14:05,VALID,998.418,VALID,0,VALID,55.5436,VALID,0,VALID,27.1352,VALID,182,VALID,5.28555,
2009-08-01, 01:15:05,VALID,998.401,VALID,0,VALID,55.7573,VALID,0,VALID,27.1177,VALID,178,VALID,7.92773,
2009-08-01, 01:16:05,VALID,998.4,VALID,0,VALID,55.4216,VALID,0,VALID,27.1547,VALID,171,VALID,6.58437,
2009-08-01, 01:17:05,VALID,998.279,VALID,0,VALID,55.0859,VALID,0,VALID,27.1743,VALID,187,VALID,8.2668,
2009-08-01, 01:18:05,VALID,998.373,VALID,0,VALID,54.9867,VALID,0,VALID,27.2133,VALID,179,VALID,5.98633,
2009-08-01, 01:19:05,VALID,998.402,VALID,0,VALID,55.3758,VALID,0,VALID,27.1743,VALID,184,VALID,6.65234,
2009-08-01, 01:20:05,VALID,998.335,VALID,0,VALID,55.124,VALID,0,VALID,27.1547,VALID,178,VALID,6.67148,
2009-08-01, 01:21:05,VALID,998.393,VALID,0,VALID,55.4292,VALID,0,VALID,27.1938,VALID,180,VALID,6.49219,
2009-08-01, 01:22:05,VALID,998.282,VALID,0,VALID,55.5513,VALID,0,VALID,27.2154,VALID,216,VALID,6.30352,
2009-08-01, 01:23:05,VALID,998.373,VALID,0,VALID,55.8183,VALID,0,VALID,27.2154,VALID,184,VALID,6.88008,
2009-08-01, 01:24:05,VALID,998.328,VALID,0,VALID,55.9251,VALID,0,VALID,27.2349,VALID,180,VALID,8.46836,
2009-08-01, 01:25:05,VALID,998.275,VALID,0,VALID,55.8717,VALID,0,VALID,27.2524,VALID,201,VALID,7.18437,
2009-08-01, 01:26:05,VALID,998.125,VALID,0,VALID,55.6428,VALID,0,VALID,27.3305,VALID,178,VALID,10.7672,
2009-08-01, 01:27:05,VALID,998.237,VALID,0,VALID,55.5894,VALID,0,VALID,27.3696,VALID,183,VALID,8.23047,
2009-08-01, 01:28:05,VALID,998.341,VALID,0,VALID,54.8646,VALID,0,VALID,27.3696,VALID,181,VALID,7.02812,
2009-08-01, 01:29:05,VALID,998.255,VALID,0,VALID,54.9333,VALID,0,VALID,27.3696,VALID,169,VALID,5.84727,
2009-08-01, 01:30:05,VALID,998.304,VALID,0,VALID,55.1545,VALID,0,VALID,27.311,VALID,179,VALID,5.82695,
2009-08-01, 01:31:05,VALID,998.258,VALID,0,VALID,55.4063,VALID,0,VALID,27.3305,VALID,178,VALID,8.47422,
2009-08-01, 01:32:05,VALID,998.106,VALID,0,VALID,54.8341,VALID,0.112286,VALID,27.4282,VALID,183,VALID,7.28672,
2009-08-01, 01:33:05,VALID,998.129,VALID,0,VALID,54.5213,VALID,0,VALID,27.4477,VALID,177,VALID,8.3582,
2009-08-01, 01:34:05,VALID,998.181,VALID,0,VALID,54.1703,VALID,0,VALID,27.4086,VALID,174,VALID,7.95117,
2009-08-01, 01:35:05,VALID,998.258,VALID,0,VALID,53.6744,VALID,0,VALID,27.4868,VALID,177,VALID,6.90625,
2009-08-01, 01:36:05,VALID,998.195,VALID,0,VALID,54.239,VALID,0.112286,VALID,27.4672,VALID,176,VALID,5.65859,
2009-08-01, 01:37:05,VALID,998.229,VALID,0,VALID,54.918,VALID,0,VALID,27.35,VALID,166,VALID,5.03203,
2009-08-01, 01:38:05,VALID,998.174,VALID,0,VALID,55.3453,VALID,0,VALID,27.1743,VALID,171,VALID,4.49805,
2009-08-01, 01:39:05,VALID,998.135,VALID,0,VALID,55.391,VALID,0,VALID,27.1938,VALID,185,VALID,6.31992,
2009-08-01, 01:40:05,VALID,998.146,VALID,0,VALID,55.3605,VALID,0,VALID,27.2113,VALID,171,VALID,4.84727,
2009-08-01, 01:41:05,VALID,998.116,VALID,0,VALID,55.3071,VALID,0,VALID,27.1938,VALID,173,VALID,6.6582,
2009-08-01, 01:42:05,VALID,998.122,VALID,0,VALID,55.5894,VALID,0,VALID,27.1938,VALID,175,VALID,6.61289,
2009-08-01, 01:43:05,VALID,998.13,VALID,0,VALID,55.9175,VALID,0,VALID,27.2329,VALID,177,VALID,5.51484,
2009-08-01, 01:44:05,VALID,998.021,VALID,0,VALID,56.3982,VALID,0,VALID,27.2524,VALID,186,VALID,6.53984,
2009-08-01, 01:45:05,VALID,998.035,VALID,0,VALID,56.4973,VALID,0,VALID,27.274,VALID,172,VALID,6.30977,
2009-08-01, 01:46:05,VALID,997.967,VALID,0,VALID,57.0848,VALID,0,VALID,27.1959,VALID,163,VALID,7.58477,
2009-08-01, 01:47:05,VALID,997.951,VALID,0,VALID,57.1687,VALID,0,VALID,27.1352,VALID,169,VALID,7.87461,
2009-08-01, 01:48:05,VALID,997.974,VALID,0,VALID,57.0314,VALID,0,VALID,27.1959,VALID,171,VALID,7.95937,
2009-08-01, 01:49:05,VALID,997.948,VALID,0,VALID,57.0619,VALID,0,VALID,27.1743,VALID,174,VALID,4.92266,
2009-08-01, 01:50:05,VALID,997.965,VALID,0,VALID,57.3976,VALID,0,VALID,27.0961,VALID,165,VALID,5.51719,
2009-08-01, 01:51:05,VALID,997.94,VALID,0,VALID,58.7023,VALID,0,VALID,27.1177,VALID,181,VALID,7.58047,
2009-08-01, 01:52:05,VALID,997.856,VALID,0,VALID,58.3208,VALID,0,VALID,27.1743,VALID,174,VALID,8.5125,
2009-08-01, 01:53:05,VALID,997.863,VALID,0,VALID,58.0996,VALID,0,VALID,27.2133,VALID,188,VALID,6.86289,
2009-08-01, 01:54:05,VALID,997.889,VALID,0,VALID,58.0996,VALID,0,VALID,27.2349,VALID,177,VALID,5.63477,
2009-08-01, 01:55:05,VALID,997.879,VALID,0,VALID,58.359,VALID,0,VALID,27.1547,VALID,166,VALID,6.90586,
2009-08-01, 01:56:05,VALID,997.88,VALID,0,VALID,58.7252,VALID,0,VALID,27.1157,VALID,170,VALID,6.49336,
2009-08-01, 01:57:05,VALID,997.867,VALID,0,VALID,58.8473,VALID,0,VALID,27.0961,VALID,180,VALID,7.3375,
2009-08-01, 01:58:05,VALID,997.831,VALID,0,VALID,59.0533,VALID,0,VALID,27.0571,VALID,185,VALID,7.22891,
2009-08-01, 01:59:05,VALID,997.804,VALID,0,VALID,58.9007,VALID,0,VALID,27.1157,VALID,196,VALID,6.55781,
2009-08-01, 02:00:05,VALID,997.859,VALID,0,VALID,58.9159,VALID,0,VALID,27.1352,VALID,183,VALID,7.01289,
2009-08-01, 02:01:05,VALID,997.945,VALID,0,VALID,58.7939,VALID,0,VALID,27.1352,VALID,179,VALID,6.64141,
2009-08-01, 02:02:05,VALID,997.868,VALID,0,VALID,59.0304,VALID,0,VALID,27.1157,VALID,170,VALID,5.16367,
2009-08-01, 02:03:05,VALID,997.856,VALID,0,VALID,59.4042,VALID,0,VALID,27.0591,VALID,177,VALID,5.28164,
2009-08-01, 02:04:05,VALID,997.864,VALID,0,VALID,59.6484,VALID,0,VALID,27.018,VALID,181,VALID,4.98906,
2009-08-01, 02:05:05,VALID,997.802,VALID,0,VALID,59.8162,VALID,0,VALID,26.9789,VALID,168,VALID,4.18984,
2009-08-01, 02:06:05,VALID,997.843,VALID,0,VALID,59.9383,VALID,0,VALID,26.9615,VALID,181,VALID,5.74141,
2009-08-01, 02:07:05,VALID,997.891,VALID,0,VALID,59.923,VALID,0,VALID,26.9789,VALID,175,VALID,5.80547,
2009-08-01, 02:08:05,VALID,997.869,VALID,0,VALID,59.8239,VALID,0,VALID,26.9985,VALID,185,VALID,3.91484,
2009-08-01, 02:09:05,VALID,997.899,VALID,0,VALID,60.1061,VALID,0,VALID,26.9594,VALID,182,VALID,3.29844,
2009-08-01, 02:10:05,VALID,997.847,VALID,0,VALID,60.1824,VALID,0,VALID,26.9204,VALID,184,VALID,4.89219,
2009-08-01, 02:11:05,VALID,997.856,VALID,0,VALID,60.335,VALID,0,VALID,26.9399,VALID,183,VALID,5.60703,
2009-08-01, 02:12:05,VALID,997.78,VALID,0,VALID,60.4876,VALID,0,VALID,26.9789,VALID,192,VALID,4.86562,
2009-08-01, 02:13:05,VALID,997.815,VALID,0,VALID,60.3884,VALID,0,VALID,27.0375,VALID,176,VALID,5.3457,
2009-08-01, 02:14:05,VALID,997.738,VALID,0,VALID,60.6402,VALID,0,VALID,26.9789,VALID,177,VALID,6.34336,
2009-08-01, 02:15:05,VALID,997.822,VALID,0,VALID,60.6479,VALID,0,VALID,27.0375,VALID,179,VALID,4.47852,
2009-08-01, 02:16:05,VALID,997.734,VALID,0,VALID,60.5944,VALID,0,VALID,26.9985,VALID,173,VALID,3.43945,
2009-08-01, 02:17:05,VALID,997.678,VALID,0,VALID,60.8462,VALID,0,VALID,26.9789,VALID,217,VALID,5.10391,
2009-08-01, 02:18:05,VALID,997.762,VALID,0,VALID,60.6707,VALID,0,VALID,27.0375,VALID,192,VALID,5.29531,
2009-08-01, 02:19:05,VALID,997.695,VALID,0,VALID,60.747,VALID,0,VALID,27.0396,VALID,184,VALID,6.15312,
2009-08-01, 02:20:05,VALID,997.77,VALID,0,VALID,61.0141,VALID,0,VALID,26.9985,VALID,185,VALID,4.60586,
2009-08-01, 02:21:05,VALID,997.702,VALID,0,VALID,61.3421,VALID,0,VALID,26.9399,VALID,200,VALID,4.07813,
2009-08-01, 02:22:05,VALID,997.752,VALID,0,VALID,61.2353,VALID,0,VALID,26.9399,VALID,190,VALID,4.10313,
2009-08-01, 02:23:04,VALID,997.685,VALID,0,VALID,61.4413,VALID,0,VALID,26.9204,VALID,188,VALID,3.83242,
2009-08-01, 02:24:04,VALID,997.714,VALID,0,VALID,61.4947,VALID,0,VALID,26.9204,VALID,180,VALID,4.08711,
2009-08-01, 02:25:04,VALID,997.718,VALID,0,VALID,61.7236,VALID,0,VALID,26.8618,VALID,195,VALID,3.71992,
2009-08-01, 02:26:04,VALID,997.637,VALID,0,VALID,61.6321,VALID,0,VALID,26.9008,VALID,186,VALID,5.71797,
2009-08-01, 02:27:04,VALID,997.681,VALID,0,VALID,61.5176,VALID,0,VALID,26.9615,VALID,182,VALID,5.92148,
2009-08-01, 02:28:04,VALID,997.697,VALID,0,VALID,61.2506,VALID,0,VALID,27.018,VALID,182,VALID,5.56055,
2009-08-01, 02:29:04,VALID,997.716,VALID,0,VALID,61.3879,VALID,0,VALID,27.0396,VALID,191,VALID,3.7707,
2009-08-01, 02:30:04,VALID,997.723,VALID,0,VALID,61.5481,VALID,0,VALID,27.0005,VALID,178,VALID,4.98203,
2009-08-01, 02:31:04,VALID,997.672,VALID,0,VALID,61.6397,VALID,0,VALID,27.0005,VALID,168,VALID,6.12539,
2009-08-01, 02:32:04,VALID,997.689,VALID,0,VALID,61.7847,VALID,0,VALID,26.981,VALID,171,VALID,6.3375,
2009-08-01, 02:33:04,VALID,997.696,VALID,0,VALID,62.2424,VALID,0,VALID,26.9008,VALID,180,VALID,3.43203,
2009-08-01, 02:34:04,VALID,997.779,VALID,0,VALID,62.4561,VALID,0,VALID,26.8227,VALID,176,VALID,4.26016,
2009-08-01, 02:35:04,VALID,997.659,VALID,0,VALID,62.1127,VALID,0,VALID,26.8638,VALID,180,VALID,8.44336,
2009-08-01, 02:36:04,VALID,997.634,VALID,0,VALID,61.7847,VALID,0,VALID,26.9615,VALID,194,VALID,6.7957,
2009-08-01, 02:37:04,VALID,997.718,VALID,0,VALID,62.0059,VALID,0,VALID,26.9594,VALID,172,VALID,6.74531,
2009-08-01, 02:38:04,VALID,997.66,VALID,0,VALID,61.5863,VALID,0,VALID,26.9985,VALID,192,VALID,5.87187,
2009-08-01, 02:39:04,VALID,997.663,VALID,0,VALID,61.7465,VALID,0,VALID,27.0005,VALID,172,VALID,5.17695,
2009-08-01, 02:40:04,VALID,997.686,VALID,0,VALID,61.7389,VALID,0,VALID,26.9594,VALID,173,VALID,5.66094,
2009-08-01, 02:41:04,VALID,997.617,VALID,0,VALID,61.7541,VALID,0,VALID,27.0005,VALID,167,VALID,6.36367,
2009-08-01, 02:42:04,VALID,997.625,VALID,0,VALID,61.7618,VALID,0,VALID,26.981,VALID,169,VALID,4.97461,
2009-08-01, 02:43:04,VALID,997.582,VALID,0,VALID,61.9601,VALID,0,VALID,26.9224,VALID,175,VALID,4.38711,
2009-08-01, 02:44:04,VALID,997.545,VALID,0,VALID,62.3874,VALID,0,VALID,26.8638,VALID,170,VALID,6.19766,
2009-08-01, 02:45:04,VALID,997.563,VALID,0,VALID,62.3187,VALID,0,VALID,26.8247,VALID,172,VALID,7.2875,
2009-08-01, 02:46:04,VALID,997.589,VALID,0,VALID,61.8839,VALID,0,VALID,26.9029,VALID,197,VALID,3.89492,
2009-08-01, 02:47:04,VALID,997.513,VALID,0,VALID,61.5481,VALID,0,VALID,26.9615,VALID,200,VALID,3.61094,
2009-08-01, 02:48:04,VALID,997.517,VALID,0,VALID,62.0212,VALID,0,VALID,26.9399,VALID,175,VALID,6.46523,
2009-08-01, 02:49:04,VALID,997.521,VALID,0,VALID,61.7923,VALID,0,VALID,26.9399,VALID,165,VALID,7.84102,
2009-08-01, 02:50:04,VALID,997.563,VALID,0,VALID,61.4184,VALID,0,VALID,26.9204,VALID,194,VALID,4.58047,
2009-08-01, 02:51:04,VALID,997.58,VALID,0,VALID,61.365,VALID,0,VALID,26.9594,VALID,182,VALID,6.13359,
2009-08-01, 02:52:04,VALID,997.587,VALID,0,VALID,61.5024,VALID,0,VALID,26.9399,VALID,179,VALID,4.88633,
2009-08-01, 02:53:04,VALID,997.672,VALID,0,VALID,61.7007,VALID,0,VALID,26.9419,VALID,179,VALID,4.09766,
2009-08-01, 02:54:04,VALID,997.663,VALID,0,VALID,61.7999,VALID,0,VALID,26.8638,VALID,174,VALID,4.85977,
2009-08-01, 02:55:04,VALID,997.642,VALID,0,VALID,61.5024,VALID,0,VALID,26.9029,VALID,177,VALID,4.64297,
2009-08-01, 02:56:04,VALID,997.69,VALID,0,VALID,61.571,VALID,0,VALID,26.9419,VALID,196,VALID,3.63203,
2009-08-01, 02:57:04,VALID,997.652,VALID,0,VALID,61.4108,VALID,0,VALID,26.9419,VALID,174,VALID,5.62266,
2009-08-01, 02:58:04,VALID,997.706,VALID,0,VALID,61.4718,VALID,0,VALID,26.9224,VALID,179,VALID,5.84883,
2009-08-01, 02:59:04,VALID,997.665,VALID,0,VALID,60.892,VALID,0,VALID,26.9985,VALID,171,VALID,5.38945,
2009-08-01, 03:00:04,VALID,997.624,VALID,0,VALID,60.9988,VALID,0,VALID,26.981,VALID,185,VALID,4.8543,
2009-08-01, 03:01:04,VALID,997.549,VALID,0,VALID,61.1133,VALID,0,VALID,26.981,VALID,186,VALID,7.57266,
2009-08-01, 03:02:04,VALID,997.654,VALID,0,VALID,61.3193,VALID,0,VALID,26.981,VALID,173,VALID,6.43359,
2009-08-01, 03:03:04,VALID,997.654,VALID,0,VALID,61.2506,VALID,0,VALID,26.9029,VALID,176,VALID,7.4957,
2009-08-01, 03:04:04,VALID,997.625,VALID,0,VALID,61.1972,VALID,0,VALID,26.9399,VALID,184,VALID,5.24961,
2009-08-01, 03:05:04,VALID,997.614,VALID,0,VALID,61.0598,VALID,0,VALID,26.9615,VALID,179,VALID,6.00352,
2009-08-01, 03:06:04,VALID,997.633,VALID,0,VALID,61.1819,VALID,0,VALID,26.9399,VALID,175,VALID,6.19766,
2009-08-01, 03:07:04,VALID,997.571,VALID,0,VALID,61.3421,VALID,0,VALID,26.981,VALID,182,VALID,6.32852,
2009-08-01, 03:08:04,VALID,997.595,VALID,0,VALID,61.2659,VALID,0,VALID,26.8618,VALID,174,VALID,7.11016,
2009-08-01, 03:09:04,VALID,997.5,VALID,0,VALID,61.2201,VALID,0,VALID,26.8833,VALID,188,VALID,6.87422,
2009-08-01, 03:10:04,VALID,997.537,VALID,0,VALID,60.9301,VALID,0,VALID,26.9789,VALID,180,VALID,4.94375,
2009-08-01, 03:11:04,VALID,997.599,VALID,0,VALID,60.8691,VALID,0,VALID,27.0375,VALID,178,VALID,4.41758,
2009-08-01, 03:12:04,VALID,997.544,VALID,0,VALID,61.304,VALID,0,VALID,26.9615,VALID,179,VALID,7.94063,
2009-08-01, 03:13:04,VALID,997.526,VALID,0,VALID,61.3498,VALID,0,VALID,26.9399,VALID,181,VALID,5.55781,
2009-08-01, 03:14:04,VALID,997.503,VALID,0,VALID,61.304,VALID,0,VALID,26.9204,VALID,175,VALID,6.41875,
2009-08-01, 03:15:04,VALID,997.527,VALID,0,VALID,61.1438,VALID,0,VALID,26.9399,VALID,174,VALID,6.85547,
2009-08-01, 03:16:04,VALID,997.555,VALID,0,VALID,61.1133,VALID,0,VALID,26.8813,VALID,184,VALID,4.83203,
2009-08-01, 03:17:04,VALID,997.511,VALID,0,VALID,61.2811,VALID,0,VALID,26.9224,VALID,155,VALID,4.46875,
2009-08-01, 03:18:04,VALID,997.498,VALID,0,VALID,61.7694,VALID,0,VALID,26.8638,VALID,172,VALID,4.17773,
2009-08-01, 03:19:04,VALID,997.467,VALID,0,VALID,61.7694,VALID,0,VALID,26.8052,VALID,172,VALID,6.29922,
2009-08-01, 03:20:04,VALID,997.499,VALID,0,VALID,61.8228,VALID,0,VALID,26.8227,VALID,177,VALID,4.73203,
2009-08-01, 03:21:04,VALID,997.498,VALID,0,VALID,61.7236,VALID,0,VALID,26.8443,VALID,186,VALID,3.84766,
2009-08-01, 03:22:04,VALID,997.497,VALID,0,VALID,61.861,VALID,0,VALID,26.8032,VALID,177,VALID,4.51328,
2009-08-01, 03:23:04,VALID,997.426,VALID,0,VALID,62.3187,VALID,0,VALID,26.7641,VALID,161,VALID,4.92812,
2009-08-01, 03:24:04,VALID,997.423,VALID,0,VALID,61.8533,VALID,0,VALID,26.7857,VALID,173,VALID,6.73203,
2009-08-01, 03:25:04,VALID,997.452,VALID,0,VALID,62.1509,VALID,0,VALID,26.7641,VALID,163,VALID,5.41211,
2009-08-01, 03:26:04,VALID,997.462,VALID,0,VALID,61.8304,VALID,0,VALID,26.8247,VALID,179,VALID,7.56914,
2009-08-01, 03:27:04,VALID,997.404,VALID,0,VALID,61.571,VALID,0,VALID,26.8833,VALID,182,VALID,4.61914,
2009-08-01, 03:28:04,VALID,997.451,VALID,0,VALID,61.5863,VALID,0,VALID,26.8833,VALID,182,VALID,4.28242,
2009-08-01, 03:29:04,VALID,997.452,VALID,0,VALID,61.922,VALID,0,VALID,26.8443,VALID,166,VALID,5.64648,
2009-08-01, 03:30:04,VALID,997.458,VALID,0,VALID,61.5329,VALID,0,VALID,26.8443,VALID,165,VALID,7.47969,
2009-08-01, 03:31:04,VALID,997.433,VALID,0,VALID,61.5634,VALID,0,VALID,26.8443,VALID,170,VALID,6.03672,
2009-08-01, 03:32:04,VALID,997.451,VALID,0,VALID,61.6778,VALID,0,VALID,26.8443,VALID,176,VALID,7.14922,
2009-08-01, 03:33:04,VALID,997.453,VALID,0,VALID,61.6778,VALID,0,VALID,26.9029,VALID,179,VALID,5.21367,
2009-08-01, 03:34:04,VALID,997.379,VALID,0,VALID,61.7618,VALID,0,VALID,26.9029,VALID,188,VALID,6.21992,
2009-08-01, 03:35:04,VALID,997.397,VALID,0,VALID,61.7465,VALID,0,VALID,26.8638,VALID,180,VALID,5.79727,
2009-08-01, 03:36:04,VALID,997.404,VALID,0,VALID,62.3264,VALID,0,VALID,26.8032,VALID,169,VALID,4.46562,
2009-08-01, 03:37:04,VALID,997.436,VALID,0,VALID,62.6468,VALID,0,VALID,26.7251,VALID,187,VALID,2.98203,
2009-08-01, 03:38:04,VALID,997.377,VALID,0,VALID,62.6544,VALID,0,VALID,26.688,VALID,176,VALID,4.15,
2009-08-01, 03:39:04,VALID,997.418,VALID,0,VALID,62.7918,VALID,0,VALID,26.6685,VALID,184,VALID,4.52812,
2009-08-01, 03:40:04,VALID,997.405,VALID,0,VALID,62.0059,VALID,0,VALID,26.7641,VALID,171,VALID,5.64453,
2009-08-01, 03:41:04,VALID,997.418,VALID,0,VALID,62.0975,VALID,0,VALID,26.8227,VALID,178,VALID,3.56719,
2009-08-01, 03:42:04,VALID,997.495,VALID,0,VALID,62.5934,VALID,0,VALID,26.7661,VALID,167,VALID,4.18555,
2009-08-01, 03:43:04,VALID,997.451,VALID,0,VALID,63.0817,VALID,0,VALID,26.6469,VALID,155,VALID,5.60039,
2009-08-01, 03:44:04,VALID,997.441,VALID,0,VALID,62.7994,VALID,0,VALID,26.7271,VALID,175,VALID,5.40234,
2009-08-01, 03:45:04,VALID,997.481,VALID,0,VALID,62.9596,VALID,0,VALID,26.7466,VALID,173,VALID,4.83398,
2009-08-01, 03:46:04,VALID,997.401,VALID,0,VALID,62.5018,VALID,0,VALID,26.7055,VALID,165,VALID,5.64336,